Location: Düngen
(52.0952°N, 10.0219°E)
Time: 15:38:23
(UTC+00:00)

Meteor 1-31 Rocket - Pass Details

Date: 11 March 2026
Orbit: 457 x 471 km, 97.6° (Epoch: 14 April)

Event Time Altitude Azimuth Distance (km) Brightness Sun altitude
Exits shadow 19:38:19 11° 206° (SSW) 1,569 5.1 -21.9°
Maximum altitude 19:41:11 27° 264° (W) 934 4.5 -22.3°
Drops below altitude 10° 19:44:11 10° 324° (NW) 1,626 6.1 -22.8°
Sets 19:46:28 0° 337° (NNW) 2,511 6.9 -23.1°
